Theta_e
323 322 322 321 321 320 319 319 319 318 320 319 319 319 319 319 319 319 319 317 316 317
322 322 321 322 322 321 321 320 320 318 318 318 318 318 318 318 317 318 318 317 316 315
321 322 322 322 321 321 321 320 319 318 317 317 317 317 317 317 317 316 317 316 315 315
320 321 321 321 321 321 321 320 319 318 317 317 316 316 316 316 316 315 315 315 313 313
319 320 320 321 321 321 320 319 319 318 317 316 316 316 315 314 314 313 313 312 311 310
319 319 319 319 320 319 319 317 317 316 316 315 315 314 315 315 314 314 314 312 308 307
317 318 319 319 318 317 318 316 316 315 315 313 313 312 312 310 313 312 311 306 305 303
316 317 317 316 316 316 315 315 314 313 312 309 307 305 304 305 308 305 300 296 296 299
313 312 311 311 310 310 310 311 308 306 305 301 297 294 299 302 300 295 295 294 292 291
304 302 304 306 304 305 303 299 302 302 301 299 296 296 296 295 295 293 293 291 288 287
297 300 296 297 299 295 295 297 296 293 293 292 292 295 294 292 291 291 291 290 289 288
293 291 292 292 292 289 291 289 289 290 290 290 290 293 293 291 289 288 287 287 288 288
290 290 291 289 288 286 289 287 288 287 287 288 288 292 292 290 289 286 285 285 285 285
289 289 289 287 287 287 287 287 287 286 286 287 288 290 291 291 288 288 286 285 283 284
Wind_Speed
24 15 17 18 15 13 13 14 15 16 16 16 15 14 13 10 10 12 11 13 11 9
22 22 19 22 17 14 14 12 14 15 16 16 16 16 15 11 12 12 12 13 12 10
20 21 20 16 18 19 16 14 15 15 16 15 15 15 15 12 12 13 10 10 11 10
18 20 19 17 18 17 16 16 17 16 16 16 15 15 15 14 14 15 13 11 11 14
18 18 18 18 18 17 18 16 17 16 15 15 15 16 16 16 14 15 16 14 13 11
19 18 19 19 18 16 17 16 15 15 16 16 15 15 17 16 15 17 15 13 13 12
19 19 19 18 17 16 16 15 16 16 15 14 14 15 15 14 15 14 11 10 10 9
16 15 15 14 15 14 15 15 15 14 13 12 12 10 12 12 11 10 8 7 7 8
12 13 14 13 14 14 14 13 12 12 12 11 8 13 16 14 10 9 9 9 6 6
8 9 11 12 12 13 13 8 12 11 10 10 8 13 14 13 8 9 9 9 8 5
8 10 7 9 10 7 6 9 8 7 7 7 5 14 16 14 9 8 7 9 9 9
7 6 7 8 8 5 6 4 5 6 9 9 7 13 15 11 7 7 7 7 7 8
8 8 7 7 8 3 5 7 7 7 5 7 10 14 15 11 7 8 6 4 4 8
7 9 10 9 5 8 9 9 8 9 6 7 8 10 14 13 6 7 6 6 5 4
Wind_Direction
207 207 208 204 203 203 200 204 194 199 201 205 200 200 199 202 206 207 211 215 215 216
207 204 206 207 203 204 204 202 194 190 197 201 200 199 196 204 204 205 207 216 216 217
207 207 208 203 203 203 202 193 187 188 194 199 200 198 197 204 204 205 212 215 210 211
209 209 208 205 206 202 197 192 190 190 191 196 196 195 199 204 202 205 211 212 211 216
206 206 208 207 203 197 198 193 192 188 189 195 197 197 198 204 202 204 211 212 208 210
206 204 205 205 202 199 197 191 191 186 192 196 197 195 203 205 202 210 211 205 197 199
203 202 203 204 200 195 195 190 191 193 197 194 193 197 198 200 206 205 206 195 193 182
205 201 200 198 196 192 191 195 194 192 196 188 188 190 185 191 193 192 178 162 170 180
202 197 194 188 184 183 190 191 182 187 186 181 191 185 183 180 182 170 169 174 171 156
180 177 182 183 176 180 183 165 180 182 177 188 180 175 171 164 162 157 164 154 149 142
173 183 173 168 174 156 154 173 166 159 156 151 158 160 155 146 139 139 159 148 151 156
156 157 160 164 157 136 137 130 140 144 142 143 143 146 147 131 127 126 129 130 144 158
145 156 167 149 138 127 123 120 124 109 111 127 130 146 148 134 130 127 127 115 128 144
142 157 150 131 127 128 117 115 116 120 110 118 138 149 149 142 133 143 141 148 154 140